Вернуться в каталог

STARLINK-30347

АктивенСвязьVLEO
NORAD 57699·PAYLOAD·🇺🇸 United States

Запущен Aug 27, 2023 с Cape Canaveral Space Force Station

Loading…

Ближайшие Пролёты (ближайшие 24 часа)

TLE

СвежийSource: CelesTrak SupGP

Эпоха: Sep 14, 2026, 22:32 UTC

1 57699C 23129B   26257.93937500 -.00005289  00000+0 -19159-3 0  2571
2 57699  42.9993 117.8911 0001142 271.5017 233.7804 15.27576740    15

Отслеживайте STARLINK-30347 в реальном времени с AllMySat

Download on the App Store